period_start,C,m1,H,J0,J1,J2,J3,J4,J5,JA,JB,JC,JD,JJ,JK,JN,#
2015-11-25 00:00:29,0.04,0.28,0.00,19.63,24.06,27.79,14.93,49.37,1026.99,2048.01,3439.76,3071.20,3416.47,600.28,609.37,7.18,0000 0000 0000 0000 000000
2015-11-25 00:05:30,0.01,0.28,0.00,19.62,24.07,27.86,14.90,49.50,1026.88,2048.00,3438.93,3070.95,3415.87,599.75,608.84,7.23,0000 0000 0000 0000 000000
2015-11-25 00:10:31,0.05,0.28,0.00,19.62,24.07,27.87,14.91,49.39,1026.83,2047.99,3438.03,3070.26,3415.07,600.12,608.98,7.28,0000 0000 0000 0000 000000
2015-11-25 00:15:32,0.04,0.28,0.00,19.60,24.07,27.85,14.92,49.61,1026.42,2047.99,3437.13,3069.76,3414.36,600.20,608.98,7.33,0000 0000 0000 0000 000000
2015-11-25 00:20:33,0.04,0.28,0.00,19.60,24.09,27.82,14.81,49.59,1026.38,2047.99,3436.16,3068.97,3413.37,599.63,608.36,7.38,0000 0000 0000 0000 000000
2015-11-25 00:25:35,0.03,0.29,0.00,19.58,24.10,27.89,14.95,49.34,1026.63,2047.99,3435.52,3068.16,3412.89,600.02,609.06,7.43,0000 0000 0000 0000 000000
2015-11-25 00:30:36,0.01,0.29,0.00,19.57,24.10,27.94,14.89,49.23,1026.91,2047.97,3434.95,3067.97,3412.07,599.73,609.02,7.48,0000 0000 0000 0000 000000
2015-11-25 00:35:37,0.04,0.29,0.00,19.57,24.10,27.92,14.92,49.35,1027.17,2047.97,3434.13,3067.29,3411.73,600.04,609.32,7.53,0000 0000 0000 0000 000000
2015-11-25 00:40:38,0.02,0.29,0.00,19.57,24.12,27.91,14.95,49.49,1027.01,2047.97,3433.67,3067.00,3411.03,600.04,609.23,7.59,0000 0000 0000 0000 000000
2015-11-25 00:45:39,0.03,0.29,0.00,19.56,24.12,27.96,14.91,49.38,1026.66,2047.97,3433.03,3066.65,3410.73,600.19,609.18,7.64,0000 0000 0000 0000 000000
2015-11-25 00:50:41,0.03,0.29,0.00,19.54,24.12,27.94,14.96,49.62,1026.34,2047.97,3432.46,3066.03,3410.03,600.23,608.94,7.69,0000 0000 0000 0000 000000
2015-11-25 00:55:42,0.02,0.29,0.00,19.53,24.12,27.96,14.94,49.67,1026.30,2047.98,3431.91,3065.88,3409.44,600.11,608.97,7.74,0000 0000 0000 0000 000000
2015-11-25 01:00:43,0.04,0.30,0.00,19.52,24.12,27.93,14.97,49.42,1026.61,2047.96,3431.09,3065.09,3408.98,600.14,609.15,7.79,0000 0000 0000 0000 000000
2015-11-25 01:05:45,0.02,0.30,0.00,19.51,24.12,27.94,14.95,49.32,1026.88,2047.92,3430.50,3064.97,3408.34,600.02,609.33,7.84,0000 0000 0000 0000 000000
2015-11-25 01:10:46,0.04,0.30,0.00,19.49,24.12,27.95,14.97,49.64,1026.55,2047.94,3429.67,3064.25,3407.89,600.22,609.27,7.89,0000 0000 0000 0000 000000
2015-11-25 01:15:47,0.02,0.30,0.00,19.49,24.12,27.96,14.89,49.72,1025.77,2047.95,3428.90,3063.95,3407.17,599.81,608.40,7.94,0000 0000 0000 0000 000000
2015-11-25 01:20:48,0.05,0.30,0.00,19.47,24.12,27.96,14.91,49.93,1025.40,2047.94,3427.94,3063.08,3406.36,599.94,608.39,7.99,0000 0000 0000 0000 000000
2015-11-25 01:25:49,0.06,0.31,0.00,19.46,24.12,27.95,14.90,49.81,1025.56,2047.95,3426.93,3062.17,3405.24,599.97,608.57,8.04,0000 0000 0000 0000 000000
2015-11-25 01:30:51,0.03,0.31,0.00,19.43,24.12,27.97,14.90,49.69,1025.89,2047.93,3426.10,3061.82,3404.45,599.78,608.63,8.09,0000 0000 0000 0000 000000
2015-11-25 01:35:52,0.03,0.31,0.00,19.40,24.12,27.97,14.92,49.73,1025.92,2047.95,3425.47,3061.10,3403.94,599.98,608.84,8.14,0000 0000 0000 0000 000000
2015-11-25 01:40:54,0.02,0.31,0.00,19.39,24.12,27.93,14.97,49.62,1025.92,2047.91,3424.84,3060.86,3403.14,600.32,609.29,8.19,0000 0000 0000 0000 000000
2015-11-25 01:45:55,0.05,0.31,0.00,19.38,24.12,27.91,14.96,49.73,1025.91,2047.95,3423.98,3060.06,3402.27,599.92,608.92,8.24,0000 0000 0000 0000 000000
2015-11-25 01:50:56,0.03,0.31,0.00,19.36,24.11,27.92,15.00,49.70,1025.90,2047.93,3423.11,3059.52,3401.96,600.25,609.29,8.29,0000 0000 0000 0000 000000
2015-11-25 01:55:57,0.03,0.32,0.00,19.34,24.10,27.89,14.93,49.75,1025.89,2047.93,3422.37,3059.03,3401.24,599.91,608.90,8.34,0000 0000 0000 0000 000000
2015-11-25 02:00:58,0.01,0.32,0.00,19.33,24.10,27.88,14.92,49.61,1025.89,2047.97,3421.96,3058.93,3400.96,600.13,609.11,8.39,0000 0000 0000 0000 000000
2015-11-25 02:06:00,0.05,0.32,0.00,19.30,24.10,27.90,14.95,49.67,1025.89,2047.98,3421.20,3058.21,3400.30,600.05,609.09,8.44,0000 0000 0000 0000 000000
2015-11-25 02:11:01,0.01,0.32,0.00,19.30,24.08,27.87,15.00,49.65,1025.88,2047.97,3420.84,3058.00,3400.00,600.43,609.48,8.49,0000 0000 0000 0000 000000
2015-11-25 02:16:03,0.04,0.32,0.00,19.29,24.07,27.84,14.97,49.48,1025.63,2047.98,3420.09,3057.67,3399.39,600.07,609.04,8.54,0000 0000 0000 0000 000000
2015-11-25 02:21:04,0.02,0.32,0.00,19.29,24.07,27.86,14.88,49.26,1025.66,2047.99,3419.51,3057.05,3398.99,600.03,609.02,8.59,0000 0000 0000 0000 000000
2015-11-25 02:26:05,0.01,0.32,0.00,19.29,24.06,27.82,14.96,49.67,1025.90,2047.98,3418.97,3056.96,3398.39,600.04,609.12,8.64,0000 0000 0000 0000 000000
2015-11-25 02:31:06,0.04,0.33,0.00,19.29,24.05,27.83,14.98,49.99,1025.91,2047.99,3418.17,3056.22,3397.79,599.96,609.11,8.69,0000 0000 0000 0000 000000
2015-11-25 02:36:07,0.06,0.33,0.00,19.27,24.05,27.86,14.96,50.17,1025.91,2047.99,3417.22,3055.51,3396.65,599.90,609.04,8.74,0000 0000 0000 0000 000000
2015-11-25 02:41:08,0.04,0.33,0.00,19.27,24.05,27.82,14.95,50.00,1025.91,2047.99,3416.12,3054.69,3395.78,599.99,609.12,8.79,0000 0000 0000 0000 000000
2015-11-25 02:46:10,0.03,0.33,0.00,19.25,24.03,27.80,14.92,49.71,1025.90,2047.99,3415.15,3054.01,3394.95,600.23,609.51,8.84,0000 0000 0000 0000 000000
2015-11-25 02:51:11,0.05,0.34,0.00,19.24,24.02,27.78,14.89,49.71,1025.91,2047.99,3414.25,3053.25,3394.07,599.75,609.05,8.89,0000 0000 0000 0000 000000
2015-11-25 02:56:12,0.04,0.34,0.00,19.24,24.02,27.78,15.07,49.96,1025.90,2047.99,3413.36,3052.79,3393.30,600.66,609.87,8.94,0000 0000 0000 0000 000000
2015-11-25 03:01:14,0.05,0.34,0.00,19.24,24.01,27.77,14.99,49.68,1025.81,2047.99,3412.27,3051.96,3392.49,599.89,609.00,8.99,0000 0000 0000 0000 000000
2015-11-25 03:06:15,0.05,0.34,0.00,19.23,24.00,27.79,14.96,49.62,1025.89,2047.99,3411.12,3051.08,3391.27,599.92,609.29,9.04,0000 0000 0000 0000 000000
2015-11-25 03:11:16,0.04,0.35,0.00,19.22,24.00,27.73,15.01,49.47,1025.89,2048.00,3410.22,3050.58,3390.81,600.23,609.44,9.09,0000 0000 0000 0000 000000
2015-11-25 03:16:17,0.03,0.35,0.00,19.21,23.98,27.75,14.91,49.48,1025.89,2048.00,3409.26,3050.00,3390.01,600.34,609.62,9.14,0000 0000 0000 0000 000000
2015-11-25 03:21:18,0.04,0.35,0.00,19.21,23.97,27.75,14.97,49.53,1025.92,2048.02,3408.60,3049.50,3389.39,600.37,609.63,9.19,0000 0000 0000 0000 000000
2015-11-25 03:26:19,0.04,0.35,0.00,19.20,23.97,27.73,14.94,49.34,1025.91,2048.01,3407.57,3048.78,3388.56,600.10,609.40,9.24,0000 0000 0000 0000 000000
2015-11-25 03:31:21,0.04,0.35,0.00,19.19,23.96,27.73,14.99,49.43,1025.90,2048.00,3406.50,3048.02,3387.73,599.91,609.36,9.29,0000 0000 0000 0000 000000
2015-11-25 03:36:22,0.04,0.36,0.00,19.19,23.95,27.75,15.00,49.50,1025.88,2048.01,3405.64,3047.43,3386.99,600.45,609.65,9.34,0000 0000 0000 0000 000000
2015-11-25 03:41:24,0.03,0.36,0.00,19.19,23.95,27.73,14.98,49.47,1025.32,2048.03,3404.72,3046.88,3386.12,600.27,609.27,9.39,0000 0000 0000 0000 000000
2015-11-25 03:46:25,0.05,0.36,0.00,19.19,23.93,27.72,14.92,49.68,1024.68,2048.05,3403.63,3046.07,3385.26,600.14,608.85,9.44,0000 0000 0000 0000 000000
2015-11-25 03:51:26,0.07,0.36,0.00,19.19,23.92,27.68,14.95,49.75,1024.44,2048.15,3402.53,3045.25,3384.23,599.72,608.16,9.49,0000 0000 0000 0000 000000
2015-11-25 03:56:28,0.06,0.37,0.00,19.18,23.92,27.72,14.96,49.76,1024.42,2048.14,3401.26,3044.19,3382.96,600.26,608.77,9.54,0000 0000 0000 0000 000000
2015-11-25 04:01:29,0.08,0.37,0.00,19.14,23.92,27.67,14.86,49.90,1024.42,2048.22,3399.89,3043.00,3381.40,599.97,608.48,9.59,0000 0000 0000 0000 000000
2015-11-25 04:06:31,0.09,0.38,0.00,19.12,23.90,27.72,14.96,49.83,1024.40,2048.25,3398.32,3041.55,3379.71,600.06,608.73,9.64,0000 0000 0000 0000 000000
2015-11-25 04:11:32,0.05,0.38,0.00,19.07,23.90,27.67,14.87,49.88,1024.31,2048.21,3397.04,3040.67,3378.46,599.83,608.44,9.69,0000 0000 0000 0000 000000
2015-11-25 04:16:33,0.11,0.38,0.00,19.03,23.90,27.66,14.97,49.77,1024.41,2048.44,3395.62,3039.33,3376.94,600.12,608.90,9.74,0000 0000 0000 0000 000000
2015-11-25 04:21:34,0.08,0.39,0.00,19.02,23.88,27.68,14.93,49.83,1024.44,2048.74,3394.39,3038.15,3375.84,599.73,608.63,9.79,0000 0000 0000 0000 000000
2015-11-25 04:26:36,0.04,0.39,0.00,19.00,23.87,27.64,14.98,49.65,1024.78,2048.86,3393.46,3037.68,3374.97,600.20,609.11,9.84,0000 0000 0000 0000 000000
2015-11-25 04:31:37,0.04,0.39,0.00,18.97,23.86,27.60,14.87,49.47,1024.92,2048.83,3392.43,3037.02,3374.11,599.89,609.08,9.89,0000 0000 0000 0000 000000
2015-11-25 04:36:39,0.05,0.40,0.00,18.97,23.85,27.57,14.94,49.49,1024.85,2048.95,3391.65,3036.34,3373.36,600.08,609.27,9.95,0000 0000 0000 0000 000000
2015-11-25 04:41:40,0.01,0.40,0.00,18.97,23.83,27.60,14.88,49.67,1024.75,2048.97,3390.91,3035.98,3372.85,599.97,609.11,10.00,0000 0000 0000 0000 000000
2015-11-25 04:46:41,0.05,0.40,0.00,18.94,23.82,27.58,14.91,49.72,1024.66,2048.98,3390.02,3035.22,3372.05,599.66,608.74,10.05,0000 0000 0000 0000 000000
2015-11-25 04:51:42,0.04,0.40,0.00,18.94,23.81,27.57,14.95,49.77,1024.70,2048.98,3389.12,3034.69,3371.20,599.97,609.09,10.10,0000 0000 0000 0000 000000
2015-11-25 04:56:44,0.03,0.41,0.00,18.93,23.80,27.54,14.86,49.48,1024.88,2048.98,3388.34,3034.02,3370.65,599.81,609.11,10.15,0000 0000 0000 0000 000000
2015-11-25 05:01:45,0.03,0.41,0.00,18.91,23.77,27.51,14.97,49.38,1025.09,2048.99,3387.67,3033.64,3369.99,599.78,609.11,10.20,0000 0000 0000 0000 000000
2015-11-25 05:06:46,0.03,0.41,0.00,18.92,23.77,27.55,14.99,49.15,1025.29,2048.99,3386.87,3033.03,3369.23,600.07,609.61,10.25,0000 0000 0000 0000 000000
2015-11-25 05:11:47,0.03,0.41,0.00,18.92,23.75,27.48,14.94,49.31,1025.34,2048.99,3386.04,3032.68,3368.88,599.98,609.53,10.30,0000 0000 0000 0000 000000
2015-11-25 05:16:48,0.03,0.41,0.00,18.93,23.74,27.48,14.96,49.31,1025.02,2048.99,3385.21,3032.03,3368.09,600.17,609.56,10.35,0000 0000 0000 0000 000000
2015-11-25 05:21:50,0.04,0.41,0.00,18.94,23.72,27.45,14.87,49.29,1024.92,2049.00,3384.41,3031.62,3367.47,599.72,608.96,10.40,0000 0000 0000 0000 000000
2015-11-25 05:26:51,0.02,0.42,0.00,18.94,23.72,27.46,14.96,49.39,1024.71,2049.01,3383.74,3031.03,3366.98,599.90,609.03,10.45,0000 0000 0000 0000 000000
2015-11-25 05:31:53,0.04,0.42,0.00,18.94,23.71,27.48,14.92,49.35,1024.60,2049.01,3383.02,3030.65,3366.24,599.76,608.85,10.50,0000 0000 0000 0000 000000
2015-11-25 05:36:54,0.03,0.42,0.00,18.93,23.70,27.44,14.91,49.35,1024.47,2049.02,3382.17,3030.02,3365.75,600.12,609.14,10.55,0000 0000 0000 0000 000000
2015-11-25 05:41:55,0.03,0.42,0.00,18.93,23.70,27.40,14.91,49.52,1024.44,2049.02,3381.56,3029.62,3365.01,600.14,609.15,10.60,0000 0000 0000 0000 000000
2015-11-25 05:46:57,0.03,0.42,0.00,18.92,23.68,27.39,15.00,49.51,1024.47,2049.03,3380.84,3029.01,3364.21,600.02,609.17,10.65,0000 0000 0000 0000 000000
2015-11-25 05:51:58,0.04,0.43,0.00,18.90,23.67,27.39,14.95,49.54,1024.71,2049.04,3380.02,3028.54,3363.66,600.17,609.42,10.70,0000 0000 0000 0000 000000
2015-11-25 05:56:59,0.02,0.43,0.00,18.91,23.67,27.44,14.95,49.63,1024.68,2049.03,3379.16,3027.99,3362.95,599.92,609.10,10.75,0000 0000 0000 0000 000000
2015-11-25 06:02:01,0.05,0.43,0.00,18.90,23.65,27.39,14.94,49.35,1024.88,2049.06,3378.35,3027.29,3362.13,599.82,609.07,10.80,0000 0000 0000 0000 000000
2015-11-25 06:07:02,0.02,0.43,0.00,18.89,23.65,27.41,14.84,49.42,1024.49,2049.05,3377.57,3026.89,3361.55,599.66,608.75,10.85,0000 0000 0000 0000 000000
2015-11-25 06:12:04,0.05,0.43,0.00,18.89,23.63,27.39,14.90,49.50,1024.39,2049.19,3376.86,3026.16,3361.00,599.77,608.79,10.90,0000 0000 0000 0000 000000
2015-11-25 06:17:05,0.02,0.44,0.00,18.89,23.62,27.41,14.97,49.52,1024.01,2049.20,3376.02,3025.94,3360.26,600.09,608.83,10.95,0000 0000 0000 0000 000000
2015-11-25 06:22:06,0.06,0.44,0.00,18.89,23.61,27.39,14.89,49.58,1023.93,2049.30,3375.15,3025.21,3359.76,599.74,608.57,11.00,0000 0000 0000 0000 000000
2015-11-25 06:27:07,0.03,0.44,0.00,18.87,23.60,27.40,14.87,49.41,1023.94,2049.37,3374.21,3024.80,3359.03,599.53,608.34,11.05,0000 0000 0000 0000 000000
2015-11-25 06:32:08,0.08,0.44,0.00,18.87,23.58,27.39,14.85,49.20,1024.21,2049.67,3373.58,3024.10,3358.40,599.70,608.73,11.10,0000 0000 0000 0000 000000
2015-11-25 06:37:09,0.03,0.45,0.00,18.86,23.57,27.33,14.96,49.14,1024.46,2049.73,3372.62,3023.73,3357.68,599.96,609.18,11.15,0000 0000 0000 0000 000000
2015-11-25 06:42:11,0.04,0.45,0.00,18.87,23.56,27.40,14.88,49.08,1024.86,2049.90,3371.87,3023.07,3357.02,599.86,609.25,11.20,0000 0000 0000 0000 000000
2015-11-25 06:47:13,0.05,0.45,0.00,18.88,23.55,27.37,14.90,49.08,1024.93,2049.94,3370.89,3022.53,3356.28,599.79,609.20,11.25,0000 0000 0000 0000 000000
2015-11-25 06:52:14,0.03,0.45,0.00,18.89,23.55,27.33,14.97,49.16,1025.19,2049.96,3369.98,3021.95,3355.50,600.04,609.58,11.30,0000 0000 0000 0000 000000
2015-11-25 06:57:15,0.04,0.46,0.00,18.91,23.55,27.35,14.93,49.47,1025.19,2049.98,3369.10,3021.15,3354.76,600.08,609.62,11.35,0000 0000 0000 0000 000000
2015-11-25 07:02:16,0.03,0.46,0.00,18.92,23.55,27.36,14.99,49.57,1025.18,2049.97,3368.27,3020.74,3353.98,600.00,609.46,11.40,0000 0000 0000 0000 000000
2015-11-25 07:07:18,0.04,0.46,0.00,18.92,23.54,27.33,14.91,49.33,1025.16,2049.97,3367.44,3020.03,3353.13,599.86,609.30,11.45,0000 0000 0000 0000 000000
2015-11-25 07:12:19,0.04,0.46,0.00,18.92,23.53,27.33,15.02,49.20,1025.06,2049.98,3366.55,3019.49,3352.51,600.63,610.01,11.50,0000 0000 0000 0000 000000
2015-11-25 07:17:20,0.04,0.46,0.00,18.92,23.52,27.35,15.00,49.28,1025.01,2049.97,3365.65,3018.69,3351.78,600.18,609.48,11.55,0000 0000 0000 0000 000000
2015-11-25 07:22:22,0.02,0.47,0.00,18.94,23.52,27.34,14.96,49.23,1025.23,2049.97,3364.89,3018.03,3351.02,599.71,609.14,11.60,0000 0000 0000 0000 000000
2015-11-25 07:27:23,0.03,0.47,0.00,18.94,23.52,27.30,14.95,49.49,1024.95,2049.98,3364.05,3017.93,3350.27,599.86,609.08,11.65,0000 0000 0000 0000 000000
2015-11-25 07:32:24,0.05,0.47,0.00,18.95,23.52,27.30,14.89,49.68,1024.94,2049.99,3363.21,3017.15,3349.63,600.10,609.43,11.70,0000 0000 0000 0000 000000
2015-11-25 07:37:25,0.04,0.47,0.00,18.95,23.52,27.33,14.94,49.48,1025.14,2049.97,3362.18,3016.42,3348.86,599.56,609.06,11.75,0000 0000 0000 0000 000000
2015-11-25 07:42:27,0.03,0.47,0.00,18.95,23.52,27.38,14.93,49.36,1025.35,2049.97,3361.32,3015.95,3348.06,600.08,609.58,11.80,0000 0000 0000 0000 000000
2015-11-25 07:47:28,0.05,0.48,0.00,18.96,23.52,27.35,15.02,49.40,1024.93,2049.98,3360.35,3015.14,3347.25,599.91,609.23,11.85,0000 0000 0000 0000 000000
2015-11-25 07:52:29,0.05,0.48,0.00,18.95,23.52,27.30,14.96,49.59,1024.58,2049.98,3359.42,3014.42,3346.43,600.07,609.11,11.90,0000 0000 0000 0000 000000
2015-11-25 07:57:31,0.09,0.48,0.00,18.94,23.52,27.34,14.90,49.67,1024.09,2049.97,3357.96,3013.15,3345.01,599.91,608.59,11.95,0000 0000 0000 0000 000000
2015-11-25 08:02:32,0.07,0.49,0.00,18.93,23.52,27.34,14.89,49.81,1023.95,2049.98,3356.46,3011.64,3343.34,599.90,608.63,12.00,0000 0000 0000 0000 000000
2015-11-25 08:07:33,0.06,0.49,0.00,18.91,23.50,27.39,14.88,49.82,1023.94,2049.98,3355.15,3010.56,3342.07,600.14,608.89,12.05,0000 0000 0000 0000 000000
2015-11-25 08:12:35,0.06,0.49,0.00,18.89,23.50,27.37,14.94,49.88,1023.94,2049.97,3353.94,3009.60,3340.94,599.64,608.44,12.11,0000 0000 0000 0000 000000
2015-11-25 08:17:36,0.05,0.50,0.00,18.88,23.50,27.37,14.90,49.81,1023.98,2049.99,3352.88,3008.64,3339.85,599.91,608.78,12.16,0000 0000 0000 0000 000000
2015-11-25 08:22:37,0.04,0.50,0.00,18.84,23.50,27.37,14.93,49.66,1024.40,2049.99,3351.83,3008.00,3338.81,599.95,609.10,12.21,0000 0000 0000 0000 000000
2015-11-25 08:27:38,0.04,0.50,0.00,18.82,23.49,27.34,14.91,49.45,1024.69,2049.97,3350.96,3007.23,3337.99,599.92,609.29,12.26,0000 0000 0000 0000 000000
2015-11-25 08:32:39,0.03,0.50,0.00,18.80,23.47,27.35,14.89,49.30,1024.91,2049.98,3350.06,3006.86,3337.14,600.01,609.55,12.31,0000 0000 0000 0000 000000
2015-11-25 08:37:40,0.04,0.51,0.00,18.78,23.47,27.35,14.93,49.42,1024.90,2049.98,3349.20,3006.06,3336.54,599.88,609.42,12.36,0000 0000 0000 0000 000000
2015-11-25 08:42:42,0.03,0.51,0.00,18.77,23.47,27.30,14.91,49.24,1024.92,2049.99,3348.51,3005.77,3336.00,600.07,609.68,12.41,0000 0000 0000 0000 000000
2015-11-25 08:47:43,0.04,0.51,0.00,18.77,23.46,27.32,14.82,49.07,1024.93,2049.99,3347.77,3005.05,3335.30,599.63,609.31,12.46,0000 0000 0000 0000 000000
2015-11-25 08:52:44,0.03,0.51,0.00,18.77,23.45,27.29,14.78,49.17,1024.93,2049.98,3347.02,3004.73,3334.82,599.47,609.20,12.51,0000 0000 0000 0000 000000
2015-11-25 08:57:46,0.03,0.51,0.00,18.77,23.45,27.33,14.88,49.38,1024.91,2049.99,3346.22,3004.02,3334.05,599.90,609.48,12.56,0000 0000 0000 0000 000000
2015-11-25 09:02:48,0.03,0.51,0.00,18.77,23.45,27.29,14.96,49.44,1024.83,2049.99,3345.65,3003.76,3333.53,599.92,609.51,12.61,0000 0000 0000 0000 000000
2015-11-25 09:07:49,0.02,0.52,0.00,18.77,23.44,27.28,14.90,49.35,1024.47,2049.98,3344.94,3003.03,3332.97,599.63,608.99,12.66,0000 0000 0000 0000 000000
2015-11-25 09:12:50,0.04,0.52,0.00,18.75,23.43,27.26,14.97,49.48,1024.20,2049.99,3344.08,3002.59,3332.18,599.96,609.05,12.71,0000 0000 0000 0000 000000
2015-11-25 09:17:52,0.03,0.52,0.00,18.74,23.42,27.25,14.91,49.49,1023.96,2049.99,3343.28,3002.01,3331.65,599.91,609.00,12.76,0000 0000 0000 0000 000000
2015-11-25 09:22:53,0.03,0.52,0.00,18.74,23.42,27.26,15.07,49.69,1023.93,2049.99,3342.67,3001.59,3331.03,600.31,609.40,12.81,0000 0000 0000 0000 000000
2015-11-25 09:27:54,0.03,0.53,0.00,18.72,23.42,27.29,15.00,49.75,1023.66,2049.99,3341.76,3000.94,3330.25,599.97,608.85,12.86,0000 0000 0000 0000 000000
2015-11-25 09:32:56,0.05,0.53,0.00,18.69,23.40,27.23,14.98,49.87,1023.45,2049.99,3340.82,3000.09,3329.55,600.11,608.93,12.91,0000 0000 0000 0000 000000
2015-11-25 09:37:57,0.03,0.53,0.00,18.68,23.40,27.24,14.94,49.67,1023.45,2049.99,3339.91,2999.59,3328.79,599.80,608.74,12.96,0000 0000 0000 0000 000000
2015-11-25 09:42:58,0.04,0.53,0.00,18.66,23.38,27.22,14.94,49.64,1023.49,2049.99,3338.82,2998.93,3327.91,600.01,608.96,13.01,0000 0000 0000 0000 000000
2015-11-25 09:47:59,0.06,0.53,0.00,18.63,23.37,27.24,14.93,49.51,1023.90,2049.99,3337.72,2998.11,3327.05,599.86,609.15,13.06,0000 0000 0000 0000 000000
2015-11-25 09:53:00,0.04,0.54,0.00,18.62,23.36,27.19,15.02,49.59,1023.96,2049.99,3336.88,2997.45,3326.16,600.14,609.64,13.11,0000 0000 0000 0000 000000
2015-11-25 09:58:02,0.03,0.54,0.00,18.61,23.35,27.20,14.94,49.62,1023.91,2050.00,3335.95,2996.93,3325.56,599.79,609.09,13.16,0000 0000 0000 0000 000000
2015-11-25 10:03:04,0.05,0.54,0.00,18.59,23.34,27.17,14.90,49.53,1023.49,2050.00,3334.97,2996.10,3324.74,599.87,609.01,13.21,0000 0000 0000 0000 000000
2015-11-25 10:08:05,0.04,0.54,0.00,18.57,23.32,27.15,14.88,49.66,1023.45,2050.00,3334.03,2995.53,3323.97,599.99,609.26,13.26,0000 0000 0000 0000 000000
2015-11-25 10:13:06,0.03,0.55,0.00,18.54,23.32,27.15,14.94,49.78,1023.42,2050.00,3333.12,2994.99,3323.18,599.88,609.11,13.31,0000 0000 0000 0000 000000
2015-11-25 10:18:07,0.05,0.55,0.00,18.53,23.30,27.16,15.06,49.88,1023.31,2050.04,3332.36,2994.36,3322.66,600.33,609.47,13.36,0000 0000 0000 0000 000000
2015-11-25 10:23:08,0.05,0.55,0.00,18.51,23.29,27.12,14.86,49.69,1023.21,2050.03,3331.34,2993.65,3321.68,599.71,608.94,13.41,0000 0000 0000 0000 000000
2015-11-25 10:28:09,0.05,0.55,0.00,18.48,23.27,27.11,14.94,49.81,1023.36,2050.05,3330.12,2992.82,3320.64,599.93,609.18,13.46,0000 0000 0000 0000 000000
2015-11-25 10:33:11,0.04,0.56,0.00,18.47,23.27,27.04,14.99,49.78,1023.44,2050.06,3329.12,2992.03,3319.88,599.75,609.13,13.51,0000 0000 0000 0000 000000
2015-11-25 10:38:12,0.07,0.56,0.00,18.47,23.25,27.12,14.90,49.76,1023.31,2050.08,3327.97,2991.20,3318.81,599.81,609.09,13.56,0000 0000 0000 0000 000000
2015-11-25 10:43:13,0.06,0.56,0.00,18.45,23.23,27.05,14.95,49.91,1023.17,2050.29,3327.00,2990.42,3317.94,600.11,609.34,13.61,0000 0000 0000 0000 000000
2015-11-25 10:48:14,0.06,0.57,0.00,18.44,23.22,27.02,15.00,50.02,1023.09,2050.57,3326.09,2989.86,3317.14,600.07,609.19,13.66,0000 0000 0000 0000 000000
2015-11-25 10:53:15,0.07,0.57,0.00,18.41,23.20,27.06,14.93,49.86,1023.33,2050.78,3325.10,2989.05,3316.22,599.94,609.11,13.71,0000 0000 0000 0000 000000
2015-11-25 10:58:17,0.05,0.57,0.00,18.38,23.19,27.03,14.91,49.80,1023.40,2050.91,3324.23,2988.49,3315.58,599.80,609.32,13.76,0000 0000 0000 0000 000000
2015-11-25 11:03:18,0.03,0.57,0.00,18.36,23.17,27.04,14.92,49.83,1023.26,2050.95,3323.33,2987.92,3314.88,599.89,609.36,13.81,0000 0000 0000 0000 000000
2015-11-25 11:08:19,0.05,0.58,0.00,18.35,23.16,27.00,15.03,49.82,1023.09,2050.97,3322.19,2987.03,3313.92,600.30,609.70,13.86,0000 0000 0000 0000 000000
2015-11-25 11:13:20,0.07,0.58,0.00,18.34,23.14,26.93,15.01,49.81,1023.04,2050.99,3320.91,2986.07,3312.67,600.22,609.61,13.91,0000 0000 0000 0000 000000
2015-11-25 11:18:22,0.04,0.58,0.00,18.33,23.12,26.93,14.94,49.77,1022.97,2050.99,3319.96,2985.21,3311.94,599.82,609.31,13.96,0000 0000 0000 0000 000000
2015-11-25 11:23:23,0.05,0.59,0.00,18.30,23.11,26.96,14.99,49.78,1022.97,2050.99,3319.02,2984.67,3311.04,600.32,609.77,14.01,0000 0000 0000 0000 000000
2015-11-25 11:28:24,0.09,0.59,0.00,18.27,23.09,26.94,14.87,49.74,1022.77,2050.99,3317.35,2983.41,3309.63,599.70,609.01,14.06,0000 0000 0000 0000 000000
2015-11-25 11:33:25,0.05,0.59,0.00,18.25,23.08,26.93,15.00,49.91,1022.55,2050.99,3316.04,2982.68,3308.58,600.05,609.48,14.11,0000 0000 0000 0000 000000
2015-11-25 11:38:26,0.08,0.60,0.00,18.23,23.07,26.90,14.97,49.77,1022.51,2050.99,3314.40,2981.13,3306.87,599.83,608.99,14.16,0000 0000 0000 0000 000000
2015-11-25 11:43:28,0.04,0.60,0.00,18.22,23.05,26.86,14.91,49.87,1022.51,2050.99,3313.48,2980.65,3306.02,599.91,609.29,14.21,0000 0000 0000 0000 000000
2015-11-25 11:48:29,0.04,0.60,0.00,18.19,23.03,26.82,14.93,49.98,1022.51,2051.01,3312.60,2980.02,3305.30,600.20,609.58,14.26,0000 0000 0000 0000 000000
2015-11-25 11:53:30,0.04,0.60,0.00,18.19,23.02,26.83,15.03,49.92,1022.53,2051.04,3311.81,2979.45,3304.65,600.03,609.42,14.32,0000 0000 0000 0000 000000
2015-11-25 11:58:32,0.04,0.61,0.00,18.17,23.00,26.82,14.96,50.07,1022.54,2051.07,3310.72,2978.86,3303.85,600.13,609.55,14.37,0000 0000 0000 0000 000000
2015-11-25 12:03:33,0.05,0.61,0.00,18.16,22.99,26.86,15.00,49.91,1022.48,2051.11,3309.64,2978.04,3302.92,600.21,609.68,14.42,0000 0000 0000 0000 000000
2015-11-25 12:08:34,0.08,0.61,0.00,18.14,22.97,26.79,15.02,49.77,1022.48,2051.27,3308.60,2977.28,3302.05,600.22,609.58,14.47,0000 0000 0000 0000 000000
2015-11-25 12:13:35,0.06,0.62,0.00,18.14,22.95,26.76,14.90,49.87,1022.39,2051.63,3307.71,2976.80,3301.13,599.66,609.03,14.52,0000 0000 0000 0000 000000
2015-11-25 12:18:37,0.09,0.62,0.00,18.11,22.94,26.78,14.99,50.02,1022.30,2051.87,3306.28,2975.71,3299.98,600.45,609.84,14.57,0000 0000 0000 0000 000000
2015-11-25 12:23:38,0.07,0.63,0.00,18.09,22.92,26.73,14.93,50.23,1022.15,2051.95,3305.11,2974.79,3298.87,600.12,609.50,14.62,0000 0000 0000 0000 000000
2015-11-25 12:28:39,0.09,0.63,0.00,18.07,22.90,26.72,14.94,50.13,1022.06,2051.98,3303.65,2973.44,3297.38,600.00,609.37,14.67,0000 0000 0000 0000 000000
2015-11-25 12:33:41,0.08,0.63,0.00,18.06,22.88,26.71,14.92,50.24,1022.02,2051.98,3302.12,2972.22,3295.94,599.83,609.22,14.72,0000 0000 0000 0000 000000
2015-11-25 12:38:42,0.09,0.64,0.00,18.03,22.87,26.73,14.95,50.07,1022.20,2051.99,3300.50,2970.79,3294.12,599.96,609.46,14.77,0000 0000 0000 0000 000000
2015-11-25 12:43:43,0.07,0.64,0.00,18.02,22.84,26.70,15.05,49.98,1022.07,2051.99,3299.25,2969.61,3292.88,600.30,609.71,14.82,0000 0000 0000 0000 000000
2015-11-25 12:48:44,0.07,0.65,0.00,18.00,22.83,26.63,14.97,50.42,1021.94,2051.99,3297.98,2968.62,3291.69,599.88,609.32,14.87,0000 0000 0000 0000 000000
2015-11-25 12:53:46,0.10,0.65,0.00,17.99,22.81,26.57,14.91,50.58,1021.54,2051.99,3296.24,2967.17,3289.97,599.81,609.06,14.92,0000 0000 0000 0000 000000